TimeMST,TemperatureF,Dew PointF,Humidity,Sea Level PressureIn,VisibilityMPH,Wind Direction,Wind SpeedMPH,Gust SpeedMPH,PrecipitationIn,Events,Conditions,WindDirDegrees,DateUTC
12:56 AM,30.9,25.0,79,30.10,10.0,South,11.5,-,N/A,,Overcast,180,2013-03-02 07:56:00
1:56 AM,34.0,28.0,79,30.08,10.0,SSW,8.1,-,0.00,,Overcast,200,2013-03-02 08:56:00
2:56 AM,37.0,30.0,76,30.06,10.0,WSW,9.2,-,N/A,,Overcast,250,2013-03-02 09:56:00
3:56 AM,36.0,28.9,76,30.06,10.0,West,9.2,-,N/A,,Clear,260,2013-03-02 10:56:00
5:56 AM,32.0,28.0,85,30.07,10.0,West,8.1,-,N/A,,Clear,280,2013-03-02 12:56:00
6:56 AM,34.0,30.0,85,30.07,10.0,West,10.4,-,N/A,,Clear,280,2013-03-02 13:56:00
7:56 AM,39.0,32.0,76,30.07,10.0,WNW,10.4,-,N/A,,Clear,290,2013-03-02 14:56:00
8:56 AM,42.1,33.1,70,30.08,10.0,WNW,12.7,-,N/A,,Clear,290,2013-03-02 15:56:00
9:56 AM,46.0,34.0,63,30.07,10.0,NW,15.0,-,N/A,,Clear,310,2013-03-02 16:56:00
10:56 AM,46.0,34.0,63,30.08,10.0,NNW,13.8,-,N/A,,Clear,330,2013-03-02 17:56:00
11:56 AM,48.0,34.0,58,30.06,10.0,NNW,9.2,-,N/A,,Clear,340,2013-03-02 18:56:00
12:56 PM,48.0,34.0,58,30.02,10.0,NNW,8.1,-,N/A,,Mostly Cloudy,330,2013-03-02 19:56:00
1:56 PM,51.1,35.1,54,30.02,10.0,WNW,12.7,-,N/A,,Mostly Cloudy,300,2013-03-02 20:56:00
2:56 PM,51.1,35.1,54,30.01,10.0,NNW,6.9,-,N/A,,Clear,330,2013-03-02 21:56:00
3:56 PM,50.0,34.0,54,30.00,10.0,NW,6.9,-,N/A,,Clear,320,2013-03-02 22:56:00
4:56 PM,46.0,34.0,63,30.00,10.0,North,4.6,-,N/A,,Clear,10,2013-03-02 23:56:00
5:56 PM,37.9,32.0,79,30.02,10.0,ENE,4.6,-,N/A,,Clear,60,2013-03-03 00:56:00
6:56 PM,37.0,32.0,82,30.00,10.0,East,6.9,-,N/A,,Clear,80,2013-03-03 01:56:00
7:56 PM,36.0,30.9,82,29.98,10.0,SSE,4.6,-,N/A,,Clear,150,2013-03-03 02:56:00
8:56 PM,34.0,30.0,85,29.96,10.0,ESE,4.6,-,N/A,,Clear,110,2013-03-03 03:56:00
9:56 PM,33.1,30.0,89,29.93,10.0,ESE,5.8,-,N/A,,Clear,120,2013-03-03 04:56:00
10:56 PM,33.1,30.9,92,29.92,10.0,East,5.8,-,N/A,,Clear,100,2013-03-03 05:56:00
11:56 PM,33.1,30.9,92,29.88,9.0,SE,8.1,-,N/A,,Clear,130,2013-03-03 06:56:00